{"data":{"norad_id":66980,"intl_designator":"2025-288X","name":"STARLINK-36086","alt_names":[],"object_type":"PAYLOAD","status":"ACTIVE","operator":null,"country":"US","launch_date":"2025-12-08","launch_site_code":"AFETR","launch_vehicle":null,"mission":null,"orbit_class":"UNKNOWN","rcs_meters":null,"size_class":null,"mass_kg":null,"dimensions":null,"purposes":["comms"],"wikipedia_slug":null,"has_3d_model":false,"image_url":null,"decayed_at":null,"tle_current":{"epoch":"2026-09-20T17:35:02.932512Z","epoch_age_seconds":61210,"freshness":"FRESH","line1":"1 66980U 25288X   26263.73267283  .00017337  00000+0  63784-3 0  9992","line2":"2 66980  43.0041   2.2170 0001637 269.4626  90.6038 15.27590160 45110","mean_motion":15.2759016,"eccentricity":0.0001637,"inclination_deg":43.0041,"raan_deg":2.217,"arg_perigee_deg":269.4626,"mean_anomaly_deg":90.6038,"bstar":0.00063784,"rev_number":4511,"period_min":94.266121745639,"perigee_km":481.89550232948,"apogee_km":484.14184469698,"semimajor_km":6861.1556735132,"source":"CELESTRAK","updated_at":"2026-09-21T09:00:36.066418Z"}}}